Weather History for KE80 - September, 2012

Change the Weather History Date:

Thursday, September 20, 2012

  Actual Average (KABQ) Record (KABQ)
Temperature  
Mean Temperature 68 °F 68 °F  
Max Temperature 88 °F 79 °F 93 °F (1956)
Min Temperature 48 °F 56 °F 34 °F (1912)
Degree Days  
Heating Degree Days 0 1  
Month to date heating degree days 6  
Since 1 July heating degree days 6  
Cooling Degree Days 3 4  
Month to date cooling degree days 131  
Year to date cooling degree days 1288  
Growing Degree Days 18 (Base 50)    
Moisture  
Dew Point 28 °F    
Average Humidity 26    
Maximum Humidity 59    
Minimum Humidity 9    
Precipitation  
Precipitation 0.00 in 0.03 in 0.95 in (1974)
Month to date precipitation 0.71  
Year to date precipitation 6.99  
Snow  
Snow 0.00 in - - ()
Month to date snowfall  
Since 1 July snowfall  
Since 1 September snowfall  
Snow Depth -    
Sea Level Pressure  
Sea Level Pressure 30.17 in    
Wind  
Wind Speed 5 mph (NNW)    
Max Wind Speed 10 mph    
Max Gust Speed 22 mph    
Visibility 10 miles    
Events      
T = Trace of Precipitation, MM = Missing Value Source: NWS Daily Summary

Daily Weather History Graph

Daily Weather History Graph

Search for Another Location

Airport or City:

Trip Planner

Search our weather history database for the weather conditions in past years. The results will help you decide how hot, cold, wet, or windy it might be!

Date:

Astronomy

Sep. 20, 2012 Rise Set
Actual Time 6:54 AM MDT 7:06 PM MDT
Civil Twilight 6:29 AM MDT 7:31 PM MDT
Nautical Twilight 5:59 AM MDT 8:00 PM MDT
Astronomical Twilight 5:29 AM MDT 8:30 PM MDT
Moon 12:01 PM MDT (9/20) 10:25 PM MDT (9/20)
Length of Visible Light 13h 02m
Length of Day
12h 11m
Waxing Crescent, 27% of the Moon is Illuminated
Sep 20
Waxing Crescent
Sep 22
First Quarter
Sep 29
Full
Oct 8
Last Quarter
Oct 15
New

Hourly Weather History & Observations

Time (MDT) Temp. Dew Point Humidity Pressure Visibility Wind Dir Wind Speed Gust Speed Precip Events Conditions
12:15 AM 61.0 °F 35.6 °F 39% 30.19 in 10.0 mi NNW 3.5 mph - N/A   Clear
12:35 AM 59.7 °F 36.1 °F 41% 30.18 in 10.0 mi Calm Calm - N/A   Clear
12:55 AM 56.7 °F 38.1 °F 50% 30.18 in 10.0 mi ENE 3.5 mph - N/A   Clear
1:15 AM 57.0 °F 37.8 °F 49% 30.18 in 10.0 mi Calm Calm - N/A   Clear
1:35 AM 55.9 °F 37.0 °F 49% 30.19 in 10.0 mi North 6.9 mph - N/A   Clear
1:55 AM 55.6 °F 36.5 °F 49% 30.19 in 10.0 mi NNE 8.1 mph - N/A   Clear
2:15 AM 56.3 °F 34.3 °F 44% 30.19 in 10.0 mi NE 9.2 mph - N/A   Clear
2:35 AM 59.2 °F 32.0 °F 36% 30.19 in 10.0 mi NE 8.1 mph - N/A   Clear
2:55 AM 59.9 °F 31.6 °F 34% 30.19 in 10.0 mi West 4.6 mph - N/A   Clear
3:15 AM 56.8 °F 31.8 °F 39% 30.19 in 10.0 mi West 5.8 mph - N/A   Clear
3:35 AM 53.8 °F 33.3 °F 46% 30.19 in 10.0 mi WNW 6.9 mph - N/A   Clear
4:15 AM 54.5 °F 32.2 °F 43% 30.19 in 10.0 mi NW 3.5 mph - N/A   Clear
4:35 AM 53.8 °F 31.5 °F 43% 30.19 in 10.0 mi NW 6.9 mph - N/A   Clear
4:55 AM 55.0 °F 28.6 °F 36% 30.20 in 10.0 mi NW 8.1 mph - N/A   Clear
5:15 AM 54.3 °F 28.4 °F 37% 30.20 in 10.0 mi North 6.9 mph - N/A   Clear
5:35 AM 52.5 °F 31.1 °F 44% 30.21 in 10.0 mi Calm Calm - N/A   Clear
5:55 AM 54.5 °F 31.8 °F 42% 30.21 in 10.0 mi East 3.5 mph - N/A   Clear
6:35 AM 48.9 °F 33.8 °F 56% 30.22 in 10.0 mi Calm Calm - N/A   Clear
6:55 AM 49.3 °F 33.6 °F 55% 30.22 in 10.0 mi Calm Calm - N/A   Clear
7:15 AM 49.1 °F 35.4 °F 59% 30.23 in 10.0 mi Calm Calm - N/A   Clear
7:35 AM 51.8 °F 34.9 °F 53% 30.24 in 10.0 mi WSW 4.6 mph - N/A   Clear
7:55 AM 55.2 °F 32.4 °F 42% 30.24 in 10.0 mi WNW 3.5 mph - N/A   Clear
8:15 AM 59.0 °F 31.3 °F 35% 30.24 in 10.0 mi NW 3.5 mph - N/A   Clear
8:35 AM 61.9 °F 29.5 °F 29% 30.25 in 10.0 mi WNW 4.6 mph - N/A   Clear
8:55 AM 62.8 °F 29.5 °F 29% 30.25 in 10.0 mi WNW 4.6 mph - N/A   Clear
9:15 AM 64.6 °F 27.5 °F 25% 30.25 in 10.0 mi Calm Calm - N/A   Clear
9:55 AM 68.9 °F 29.1 °F 23% 30.25 in 10.0 mi North 3.5 mph - N/A   Clear
10:15 AM 70.3 °F 28.0 °F 21% 30.25 in 10.0 mi ENE 3.5 mph - N/A   Clear
10:35 AM 71.6 °F 27.1 °F 19% 30.25 in 10.0 mi NNE 4.6 mph - N/A   Clear
10:55 AM 72.9 °F 27.0 °F 18% 30.25 in 10.0 mi ENE 4.6 mph - N/A   Clear
11:15 AM 74.3 °F 27.0 °F 17% 30.25 in 10.0 mi Calm Calm - N/A   Clear
11:35 AM 75.6 °F 28.4 °F 18% 30.24 in 10.0 mi Calm Calm - N/A   Clear
11:55 AM 76.1 °F 28.4 °F 17% 30.23 in 10.0 mi NNE 3.5 mph - N/A   Clear
12:15 PM 79.0 °F 28.8 °F 16% 30.23 in 10.0 mi NNE 3.5 mph - N/A   Clear
12:35 PM 80.8 °F 29.3 °F 15% 30.21 in 10.0 mi NE 4.6 mph - N/A   Clear
12:55 PM 81.5 °F 28.6 °F 15% 30.20 in 10.0 mi Calm Calm - N/A   Clear
1:15 PM 83.3 °F 28.6 °F 14% 30.19 in 10.0 mi North 3.5 mph - N/A   Clear
1:35 PM 84.6 °F 28.6 °F 13% 30.18 in 10.0 mi NE 4.6 mph - N/A   Clear
1:55 PM 84.2 °F 28.4 °F 13% 30.17 in 10.0 mi SSE 3.5 mph - N/A   Clear
2:15 PM 86.0 °F 28.2 °F 12% 30.16 in 10.0 mi NNW 8.1 mph - N/A   Clear
2:35 PM 86.7 °F 28.0 °F 12% 30.15 in 10.0 mi WSW 4.6 mph - N/A   Clear
2:55 PM 86.5 °F 27.9 °F 12% 30.14 in 10.0 mi WSW 6.9 mph - N/A   Clear
3:15 PM 86.5 °F 26.6 °F 11% 30.13 in 10.0 mi West 4.6 mph 16.1 mph N/A   Clear
3:35 PM 87.3 °F 26.2 °F 11% 30.12 in 10.0 mi West 4.6 mph - N/A   Clear
3:55 PM 87.4 °F 24.8 °F 10% 30.11 in 10.0 mi Calm Calm - N/A   Clear
4:15 PM 88.7 °F 23.4 °F 9% 30.11 in 10.0 mi WNW 10.4 mph 21.9 mph N/A   Clear
4:35 PM 88.7 °F 23.5 °F 9% 30.11 in 10.0 mi WNW 10.4 mph - N/A   Clear
4:55 PM 87.6 °F 22.8 °F 9% 30.11 in 10.0 mi NW 8.1 mph - N/A   Clear
5:15 PM 87.3 °F 22.8 °F 10% 30.10 in 10.0 mi NNW 9.2 mph - N/A   Clear
5:35 PM 86.9 °F 22.8 °F 10% 30.10 in 10.0 mi NW 6.9 mph - N/A   Clear
5:55 PM 86.2 °F 22.8 °F 10% 30.10 in 10.0 mi North 10.4 mph - N/A   Clear
6:15 PM 85.1 °F 23.5 °F 11% 30.10 in 10.0 mi North 6.9 mph - N/A   Clear
6:35 PM 83.3 °F 24.3 °F 11% 30.10 in 10.0 mi NNW 5.8 mph - N/A   Clear
6:55 PM 79.2 °F 25.7 °F 14% 30.10 in 10.0 mi North 6.9 mph - N/A   Clear
7:15 PM 76.3 °F 23.9 °F 14% 30.10 in 10.0 mi North 9.2 mph - N/A   Clear
7:35 PM 73.4 °F 22.8 °F 15% 30.11 in 10.0 mi North 8.1 mph - N/A   Clear
7:55 PM 73.4 °F 21.2 °F 14% 30.11 in 10.0 mi North 9.2 mph - N/A   Clear
8:15 PM 72.7 °F 21.0 °F 14% 30.11 in 10.0 mi North 9.2 mph - N/A   Clear
8:35 PM 70.7 °F 21.2 °F 15% 30.12 in 10.0 mi North 9.2 mph - N/A   Clear
8:55 PM 67.5 °F 21.9 °F 18% 30.12 in 10.0 mi North 8.1 mph - N/A   Clear
9:15 PM 68.5 °F 21.2 °F 17% 30.13 in 10.0 mi North 8.1 mph - N/A   Clear
9:35 PM 64.2 °F 23.9 °F 22% 30.14 in 10.0 mi NNW 6.9 mph - N/A   Clear
9:55 PM 66.2 °F 21.2 °F 18% 30.14 in 10.0 mi NNW 8.1 mph - N/A   Clear
10:35 PM 62.1 °F 24.6 °F 24% 30.15 in 10.0 mi SSW 4.6 mph - N/A   Clear
10:55 PM 64.2 °F 23.5 °F 21% 30.15 in 10.0 mi West 5.8 mph - N/A   Clear
11:15 PM 64.2 °F 23.5 °F 21% 30.15 in 10.0 mi NW 6.9 mph - N/A   Clear
11:35 PM 63.7 °F 23.7 °F 22% 30.15 in 10.0 mi NW 4.6 mph - N/A   Clear
11:55 PM 64.0 °F 22.8 °F 21% 30.14 in 10.0 mi WNW 3.5 mph - N/A   Clear